Time,TemperatureF,DewpointF,PressureIn,WindDirection,WindDirectionDegrees,WindSpeedMPH,WindSpeedGustMPH,Humidity,HourlyPrecipIn,Conditions,Clouds,dailyrainin,SoftwareType,DateUTC
2013-01-14 00:00:00,32.9,31.4,30.06,WNW,301,7.3,11.5,94,0.00,CLR,,1.84,WeatherDisplay:10.37,2013-01-14 05:00:00,
2013-01-14 00:01:00,32.9,31.4,30.06,WNW,294,7.0,10.0,94,0.00,RA,,0.00,WeatherDisplay:10.37,2013-01-14 05:01:00,
2013-01-14 00:03:00,32.8,31.3,30.06,NW,309,3.4,10.0,94,0.00,RA,,0.00,WeatherDisplay:10.37,2013-01-14 05:03:00,
2013-01-14 00:08:00,32.7,31.2,30.07,WSW,250,3.4,4.6,94,0.00,RA,,0.00,WeatherDisplay:10.37,2013-01-14 05:08:00,
2013-01-14 00:13:00,32.5,31.0,30.07,WNW,300,3.0,4.6,94,0.00,CLR,,0.00,WeatherDisplay:10.37,2013-01-14 05:13:00,
2013-01-14 00:18:00,32.4,30.9,30.07,WNW,301,5.8,11.5,94,0.00,CLR,,0.00,WeatherDisplay:10.37,2013-01-14 05:18:00,
2013-01-14 00:23:00,32.2,30.7,30.08,WSW,248,10.1,18.4,94,0.00,CLR,,0.00,WeatherDisplay:10.37,2013-01-14 05:23:00,
2013-01-14 00:28:00,32.1,30.3,30.08,NW,309,7.2,11.5,93,0.00,CLR,,0.00,WeatherDisplay:10.37,2013-01-14 05:28:00,
2013-01-14 00:33:00,31.9,30.1,30.08,NW,310,6.6,6.9,93,0.00,CLR,,0.00,WeatherDisplay:10.37,2013-01-14 05:33:00,
2013-01-14 00:38:00,31.6,29.8,30.09,WNW,286,7.7,13.8,93,0.00,CLR,,0.00,WeatherDisplay:10.37,2013-01-14 05:38:00,
2013-01-14 00:43:00,31.6,29.8,30.09,West,275,2.2,5.8,93,0.00,CLR,,0.00,WeatherDisplay:10.37,2013-01-14 05:43:00,
2013-01-14 00:48:00,31.5,29.7,30.09,WNW,288,6.0,11.0,93,0.00,CLR,,0.00,WeatherDisplay:10.37,2013-01-14 05:48:00,
2013-01-14 00:53:00,31.3,29.2,30.10,WNW,289,8.7,15.0,92,0.00,CLR,,0.00,WeatherDisplay:10.37,2013-01-14 05:53:00,
2013-01-14 00:58:00,31.2,29.1,30.10,WNW,282,6.5,10.4,92,0.00,CLR,,0.00,WeatherDisplay:10.37,2013-01-14 05:58:00,
2013-01-14 01:03:00,31.2,29.1,30.10,WSW,250,4.6,9.2,92,0.00,CLR,,0.00,WeatherDisplay:10.37,2013-01-14 06:03:00,
2013-01-14 01:08:00,31.0,28.9,30.10,West,273,4.2,4.6,92,0.00,CLR,,0.00,WeatherDisplay:10.37,2013-01-14 06:08:00,
2013-01-14 01:13:00,31.0,28.7,30.10,West,277,4.2,10.0,91,0.00,CLR,,0.00,WeatherDisplay:10.37,2013-01-14 06:13:00,
2013-01-14 01:18:00,31.0,28.7,30.10,West,278,4.0,9.2,91,0.00,CLR,,0.00,WeatherDisplay:10.37,2013-01-14 06:18:00,
2013-01-14 01:23:00,31.0,28.7,30.11,WSW,250,3.4,5.0,91,0.00,CLR,,0.00,WeatherDisplay:10.37,2013-01-14 06:23:00,
2013-01-14 01:28:00,30.9,28.3,30.11,West,281,6.6,11.5,90,0.00,CLR,,0.00,WeatherDisplay:10.37,2013-01-14 06:28:00,
2013-01-14 01:33:00,30.7,27.8,30.11,West,275,7.4,12.7,89,0.00,CLR,,0.00,WeatherDisplay:10.37,2013-01-14 06:33:00,
2013-01-14 01:38:00,30.4,27.3,30.12,WNW,290,8.1,16.1,88,0.00,CLR,,0.00,WeatherDisplay:10.37,2013-01-14 06:38:00,
2013-01-14 01:43:00,30.3,26.9,30.12,West,279,5.7,11.5,87,0.00,CLR,,0.00,WeatherDisplay:10.37,2013-01-14 06:43:00,
2013-01-14 01:48:00,30.3,26.6,30.12,NW,309,5.4,9.2,86,0.00,CLR,,0.00,WeatherDisplay:10.37,2013-01-14 06:48:00,
2013-01-14 01:53:00,30.1,26.4,30.13,West,281,9.0,12.0,86,0.00,CLR,,0.00,WeatherDisplay:10.37,2013-01-14 06:53:00,
2013-01-14 01:58:00,30.1,26.1,30.13,WNW,283,2.8,4.6,85,0.00,CLR,,0.00,WeatherDisplay:10.37,2013-01-14 06:58:00,
2013-01-14 02:03:00,30.1,25.8,30.13,West,261,4.2,10.0,84,0.00,CLR,,0.00,WeatherDisplay:10.37,2013-01-14 07:03:00,
2013-01-14 02:08:00,30.1,25.8,30.14,WNW,286,6.4,13.8,84,0.00,CLR,,0.00,WeatherDisplay:10.37,2013-01-14 07:08:00,
2013-01-14 02:13:00,30.1,25.8,30.14,West,267,4.6,9.2,84,0.00,CLR,,0.00,WeatherDisplay:10.37,2013-01-14 07:13:00,
2013-01-14 02:18:00,30.1,25.8,30.14,WNW,289,6.0,10.4,84,0.00,CLR,,0.00,WeatherDisplay:10.37,2013-01-14 07:18:00,
2013-01-14 02:23:00,30.0,25.5,30.16,West,263,3.9,6.9,83,0.00,CLR,,0.00,WeatherDisplay:10.37,2013-01-14 07:23:00,
2013-01-14 02:28:00,29.8,25.0,30.16,WSW,244,5.9,15.0,82,0.00,CLR,,0.00,WeatherDisplay:10.37,2013-01-14 07:28:00,
2013-01-14 02:33:00,29.5,24.4,30.16,WSW,256,4.4,12.7,81,0.00,CLR,,0.00,WeatherDisplay:10.37,2013-01-14 07:33:00,
2013-01-14 02:38:00,29.4,24.0,30.17,West,267,8.2,10.4,80,0.00,CLR,,0.00,WeatherDisplay:10.37,2013-01-14 07:38:00,
2013-01-14 02:43:00,29.3,23.9,30.17,NW,305,4.7,10.4,80,0.00,CLR,,0.00,WeatherDisplay:10.37,2013-01-14 07:43:00,
2013-01-14 02:48:00,29.1,23.4,30.17,WNW,292,5.1,11.5,79,0.00,CLR,,0.00,WeatherDisplay:10.37,2013-01-14 07:48:00,
2013-01-14 02:53:00,29.1,23.4,30.18,WNW,288,6.0,13.8,79,0.00,CLR,,0.00,WeatherDisplay:10.37,2013-01-14 07:53:00,
2013-01-14 02:58:00,29.0,23.3,30.18,West,260,3.1,5.8,79,0.00,CLR,,0.00,WeatherDisplay:10.37,2013-01-14 07:58:00,
2013-01-14 03:03:00,29.0,23.3,30.18,West,281,4.8,12.7,79,0.00,CLR,,0.00,WeatherDisplay:10.37,2013-01-14 08:03:00,
2013-01-14 03:08:00,28.8,23.1,30.20,West,269,6.3,6.9,79,0.00,CLR,,0.00,WeatherDisplay:10.37,2013-01-14 08:08:00,
2013-01-14 03:13:00,28.8,23.1,30.20,West,275,4.7,9.2,79,0.00,CLR,,0.00,WeatherDisplay:10.37,2013-01-14 08:13:00,
2013-01-14 03:18:00,28.7,23.0,30.20,WSW,239,4.2,11.5,79,0.00,CLR,,0.00,WeatherDisplay:10.37,2013-01-14 08:18:00,
2013-01-14 03:23:00,28.5,22.8,30.21,West,273,7.5,15.0,79,0.00,CLR,,0.00,WeatherDisplay:10.37,2013-01-14 08:23:00,
2013-01-14 03:28:00,28.4,22.7,30.21,WNW,282,7.0,11.5,79,0.00,CLR,,0.00,WeatherDisplay:10.37,2013-01-14 08:28:00,
2013-01-14 03:33:00,28.2,22.5,30.21,West,279,7.6,11.5,79,0.00,CLR,,0.00,WeatherDisplay:10.37,2013-01-14 08:33:00,
2013-01-14 03:38:00,28.1,22.1,30.21,West,273,4.9,5.8,78,0.00,CLR,,0.00,WeatherDisplay:10.37,2013-01-14 08:38:00,
2013-01-14 03:44:00,27.8,21.8,30.21,West,266,3.6,9.0,78,0.00,CLR,,0.00,WeatherDisplay:10.37,2013-01-14 08:44:00,
2013-01-14 03:49:00,27.6,21.6,30.21,West,264,4.3,10.0,78,0.00,CLR,,0.00,WeatherDisplay:10.37,2013-01-14 08:49:00,
2013-01-14 03:54:00,27.6,21.6,30.22,West,268,4.1,5.8,78,0.00,CLR,,0.00,WeatherDisplay:10.37,2013-01-14 08:54:00,
2013-01-14 03:59:00,27.5,21.2,30.22,WSW,254,6.2,11.5,77,0.00,CLR,,0.00,WeatherDisplay:10.37,2013-01-14 08:59:00,
2013-01-14 04:04:00,27.2,20.9,30.22,West,262,6.3,11.5,77,0.00,CLR,,0.00,WeatherDisplay:10.37,2013-01-14 09:04:00,
2013-01-14 04:09:00,27.0,20.4,30.23,West,281,8.6,11.5,76,0.00,CLR,,0.00,WeatherDisplay:10.37,2013-01-14 09:09:00,
2013-01-14 04:14:00,26.7,20.1,30.23,West,281,5.7,8.1,76,0.00,CLR,,0.00,WeatherDisplay:10.37,2013-01-14 09:14:00,
2013-01-14 04:19:00,26.6,20.1,30.23,WNW,301,5.7,10.4,76,0.00,CLR,,0.00,WeatherDisplay:10.37,2013-01-14 09:19:00,
2013-01-14 04:24:00,26.4,20.2,30.23,West,259,6.3,11.5,77,0.00,CLR,,0.00,WeatherDisplay:10.37,2013-01-14 09:24:00,
2013-01-14 04:29:00,26.3,20.1,30.23,West,271,6.6,12.7,77,0.00,CLR,,0.00,WeatherDisplay:10.37,2013-01-14 09:29:00,
2013-01-14 04:34:00,26.1,19.9,30.23,West,264,8.0,11.5,77,0.00,CLR,,0.00,WeatherDisplay:10.37,2013-01-14 09:34:00,
2013-01-14 04:39:00,26.0,19.8,30.24,West,268,6.7,12.7,77,0.00,CLR,,0.00,WeatherDisplay:10.37,2013-01-14 09:39:00,
2013-01-14 04:44:00,25.8,19.6,30.24,SW,226,8.8,13.0,77,0.00,CLR,,0.00,WeatherDisplay:10.37,2013-01-14 09:44:00,
2013-01-14 04:49:00,25.8,19.6,30.24,West,274,6.8,13.8,77,0.00,CLR,,0.00,WeatherDisplay:10.37,2013-01-14 09:49:00,
2013-01-14 04:54:00,25.7,19.5,30.24,WNW,294,5.4,9.2,77,0.00,CLR,,0.00,WeatherDisplay:10.37,2013-01-14 09:54:00,
2013-01-14 04:59:00,25.7,19.5,30.24,West,269,3.8,5.0,77,0.00,CLR,,0.00,WeatherDisplay:10.37,2013-01-14 09:59:00,
2013-01-14 05:04:00,25.6,19.4,30.24,WNW,289,8.2,16.1,77,0.00,CLR,,0.00,WeatherDisplay:10.37,2013-01-14 10:04:00,
2013-01-14 05:09:00,25.6,19.4,30.25,West,281,6.3,10.4,77,0.00,CLR,,0.00,WeatherDisplay:10.37,2013-01-14 10:09:00,
2013-01-14 05:14:00,25.6,19.4,30.25,WSW,254,5.7,10.4,77,0.00,CLR,,0.00,WeatherDisplay:10.37,2013-01-14 10:14:00,
2013-01-14 05:19:00,25.6,19.4,30.25,WNW,288,3.8,4.6,77,0.00,CLR,,0.00,WeatherDisplay:10.37,2013-01-14 10:19:00,
2013-01-14 05:24:00,25.6,19.4,30.26,NNW,328,4.4,6.9,77,0.00,CLR,,0.00,WeatherDisplay:10.37,2013-01-14 10:24:00,
2013-01-14 05:29:00,25.6,19.4,30.26,West,271,4.1,6.9,77,0.00,CLR,,0.00,WeatherDisplay:10.37,2013-01-14 10:29:00,
2013-01-14 05:34:00,25.6,19.4,30.26,WNW,284,6.3,10.4,77,0.00,CLR,,0.00,WeatherDisplay:10.37,2013-01-14 10:34:00,
2013-01-14 05:39:00,25.6,19.7,30.26,West,266,2.3,3.5,78,0.00,CLR,,0.00,WeatherDisplay:10.37,2013-01-14 10:39:00,
2013-01-14 05:44:00,25.6,19.7,30.26,West,262,3.9,10.0,78,0.00,CLR,,0.00,WeatherDisplay:10.37,2013-01-14 10:44:00,
2013-01-14 05:49:00,25.6,19.7,30.26,WNW,284,4.6,10.4,78,0.00,CLR,,0.00,WeatherDisplay:10.37,2013-01-14 10:49:00,
2013-01-14 05:54:00,25.6,19.7,30.27,West,279,2.0,4.6,78,0.00,CLR,,0.00,WeatherDisplay:10.37,2013-01-14 10:54:00,
2013-01-14 05:59:00,25.6,19.7,30.27,WNW,290,5.3,12.7,78,0.00,CLR,,0.00,WeatherDisplay:10.37,2013-01-14 10:59:00,
2013-01-14 06:04:00,25.4,19.5,30.27,NNW,340,5.1,5.8,78,0.00,CLR,,0.00,WeatherDisplay:10.37,2013-01-14 11:04:00,
2013-01-14 06:09:00,25.4,19.2,30.28,NW,305,9.1,17.3,77,0.00,CLR,,0.00,WeatherDisplay:10.37,2013-01-14 11:09:00,
2013-01-14 06:14:00,25.3,19.1,30.28,NW,322,6.2,11.5,77,0.00,CLR,,0.00,WeatherDisplay:10.37,2013-01-14 11:14:00,
2013-01-14 06:19:00,25.1,18.6,30.28,West,277,7.0,12.7,76,0.00,CLR,,0.00,WeatherDisplay:10.37,2013-01-14 11:19:00,
2013-01-14 06:24:00,25.1,18.6,30.28,West,260,4.4,9.2,76,0.00,CLR,,0.00,WeatherDisplay:10.37,2013-01-14 11:24:00,
2013-01-14 06:29:00,25.1,18.6,30.28,SW,223,4.3,5.8,76,0.00,CLR,,0.00,WeatherDisplay:10.37,2013-01-14 11:29:00,
2013-01-14 06:34:00,25.1,18.6,30.28,West,273,4.5,6.9,76,0.00,CLR,,0.00,WeatherDisplay:10.37,2013-01-14 11:34:00,
2013-01-14 06:39:00,25.1,18.6,30.29,WSW,258,4.0,5.8,76,0.00,CLR,,0.00,WeatherDisplay:10.37,2013-01-14 11:39:00,
2013-01-14 06:44:00,25.3,18.8,30.29,West,259,4.5,7.0,76,0.00,CLR,,0.00,WeatherDisplay:10.37,2013-01-14 11:44:00,
2013-01-14 06:49:00,25.1,18.9,30.29,West,269,4.3,6.9,77,0.00,CLR,,0.00,WeatherDisplay:10.37,2013-01-14 11:49:00,
2013-01-14 06:54:00,25.1,18.9,30.31,West,273,1.9,5.0,77,0.00,CLR,,0.00,WeatherDisplay:10.37,2013-01-14 11:54:00,
2013-01-14 06:59:00,25.1,18.9,30.31,West,273,1.5,3.5,77,0.00,CLR,,0.00,WeatherDisplay:10.37,2013-01-14 11:59:00,
2013-01-14 07:04:00,25.1,18.9,30.31,WNW,286,2.0,3.5,77,0.00,CLR,,0.00,WeatherDisplay:10.37,2013-01-14 12:04:00,
2013-01-14 07:09:00,25.1,18.9,30.31,WNW,286,2.0,4.0,77,0.00,CLR,,0.00,WeatherDisplay:10.37,2013-01-14 12:09:00,
2013-01-14 07:14:00,25.1,18.9,30.31,WSW,248,4.1,7.0,77,0.00,CLR,,0.00,WeatherDisplay:10.37,2013-01-14 12:14:00,
2013-01-14 07:19:00,25.1,18.9,30.31,West,264,3.1,5.0,77,0.00,CLR,,0.00,WeatherDisplay:10.37,2013-01-14 12:19:00,
2013-01-14 07:24:00,25.1,18.9,30.32,WSW,252,3.9,4.6,77,0.00,CLR,,0.00,WeatherDisplay:10.37,2013-01-14 12:24:00,
2013-01-14 07:29:00,25.0,18.8,30.32,West,277,4.5,6.9,77,0.00,CLR,,0.00,WeatherDisplay:10.37,2013-01-14 12:29:00,
2013-01-14 07:34:00,25.0,18.8,30.32,WSW,250,3.6,5.8,77,0.00,CLR,,0.00,WeatherDisplay:10.37,2013-01-14 12:34:00,
2013-01-14 07:39:00,24.8,18.6,30.33,NNW,335,7.0,11.5,77,0.00,CLR,,0.00,WeatherDisplay:10.37,2013-01-14 12:39:00,
2013-01-14 07:44:00,24.7,18.2,30.33,NW,305,5.5,9.2,76,0.00,CLR,,0.00,WeatherDisplay:10.37,2013-01-14 12:44:00,
2013-01-14 07:49:00,24.5,18.0,30.33,NNW,327,7.0,9.2,76,0.00,CLR,,0.00,WeatherDisplay:10.37,2013-01-14 12:49:00,
2013-01-14 07:54:00,24.4,17.9,30.34,WNW,286,3.4,5.8,76,0.00,CLR,,0.00,WeatherDisplay:10.37,2013-01-14 12:54:00,
2013-01-14 07:59:00,24.4,17.9,30.34,NW,316,1.9,4.6,76,0.00,CLR,,0.00,WeatherDisplay:10.37,2013-01-14 12:59:00,
2013-01-14 08:04:00,24.4,17.9,30.34,NW,317,5.0,6.9,76,0.00,CLR,,0.00,WeatherDisplay:10.37,2013-01-14 13:04:00,
2013-01-14 08:09:00,24.4,17.9,30.35,NW,325,4.1,5.8,76,0.00,CLR,,0.00,WeatherDisplay:10.37,2013-01-14 13:09:00,
2013-01-14 08:14:00,24.2,17.7,30.35,NW,322,1.9,3.5,76,0.00,CLR,,0.00,WeatherDisplay:10.37,2013-01-14 13:14:00,
2013-01-14 08:19:00,24.2,17.7,30.35,WNW,287,4.7,8.1,76,0.00,CLR,,0.00,WeatherDisplay:10.37,2013-01-14 13:19:00,
2013-01-14 08:24:00,24.2,17.7,30.36,West,259,3.8,4.6,76,0.00,CLR,,0.00,WeatherDisplay:10.37,2013-01-14 13:24:00,
2013-01-14 08:29:00,24.2,17.7,30.36,WNW,284,1.9,3.5,76,0.00,CLR,,0.00,WeatherDisplay:10.37,2013-01-14 13:29:00,
2013-01-14 08:34:00,24.2,17.7,30.36,WNW,285,6.2,10.4,76,0.00,CLR,,0.00,WeatherDisplay:10.37,2013-01-14 13:34:00,
2013-01-14 08:39:00,24.1,17.6,30.37,West,279,2.3,4.0,76,0.00,CLR,,0.00,WeatherDisplay:10.37,2013-01-14 13:39:00,
2013-01-14 08:44:00,24.1,17.6,30.37,WNW,292,4.9,9.2,76,0.00,CLR,,0.00,WeatherDisplay:10.37,2013-01-14 13:44:00,
2013-01-14 08:49:00,24.1,17.6,30.37,WNW,295,3.6,4.6,76,0.00,CLR,,0.00,WeatherDisplay:10.37,2013-01-14 13:49:00,
2013-01-14 08:54:00,24.2,17.7,30.38,West,278,3.6,5.0,76,0.00,CLR,,0.00,WeatherDisplay:10.37,2013-01-14 13:54:00,
2013-01-14 08:59:00,24.2,17.7,30.38,West,269,2.7,3.5,76,0.00,CLR,,0.00,WeatherDisplay:10.37,2013-01-14 13:59:00,
2013-01-14 09:04:00,24.2,17.7,30.38,WNW,301,1.9,3.5,76,0.00,CLR,,0.00,WeatherDisplay:10.37,2013-01-14 14:04:00,
2013-01-14 09:09:00,24.2,17.7,30.38,West,278,2.4,4.6,76,0.00,CLR,,0.00,WeatherDisplay:10.37,2013-01-14 14:09:00,
2013-01-14 09:14:00,24.4,17.9,30.38,West,274,4.1,6.9,76,0.00,CLR,,0.00,WeatherDisplay:10.37,2013-01-14 14:14:00,
2013-01-14 09:19:00,24.4,17.9,30.38,West,277,3.3,4.6,76,0.00,CLR,,0.00,WeatherDisplay:10.37,2013-01-14 14:19:00,
2013-01-14 09:24:00,24.4,17.9,30.39,NNW,329,3.2,4.6,76,0.00,CLR,,0.00,WeatherDisplay:10.37,2013-01-14 14:24:00,
2013-01-14 09:29:00,24.4,17.9,30.39,NW,304,2.3,3.5,76,0.00,CLR,,0.00,WeatherDisplay:10.37,2013-01-14 14:29:00,
2013-01-14 09:34:00,24.4,17.9,30.39,NW,313,3.3,3.5,76,0.00,CLR,,0.00,WeatherDisplay:10.37,2013-01-14 14:34:00,
2013-01-14 09:39:00,24.2,17.7,30.40,WNW,301,3.8,6.0,76,0.00,CLR,,0.00,WeatherDisplay:10.37,2013-01-14 14:39:00,
2013-01-14 09:44:00,24.2,17.7,30.40,WNW,290,2.9,4.0,76,0.00,CLR,,0.00,WeatherDisplay:10.37,2013-01-14 14:44:00,
2013-01-14 09:49:00,24.2,17.7,30.40,WNW,300,2.2,3.5,76,0.00,CLR,,0.00,WeatherDisplay:10.37,2013-01-14 14:49:00,
2013-01-14 09:54:00,24.2,17.7,30.41,West,281,4.6,6.9,76,0.00,CLR,,0.00,WeatherDisplay:10.37,2013-01-14 14:54:00,
2013-01-14 09:59:00,24.4,17.9,30.41,West,275,3.8,4.6,76,0.00,CLR,,0.00,WeatherDisplay:10.37,2013-01-14 14:59:00,
2013-01-14 10:04:00,24.4,17.9,30.41,WNW,284,2.3,7.0,76,0.00,CLR,,0.00,WeatherDisplay:10.37,2013-01-14 15:04:00,
2013-01-14 10:09:00,24.4,17.6,30.42,WNW,300,2.1,3.5,75,0.00,CLR,,0.00,WeatherDisplay:10.37,2013-01-14 15:09:00,
2013-01-14 10:14:00,24.4,17.6,30.42,WNW,300,0.0,0.0,75,0.00,CLR,,0.00,WeatherDisplay:10.37,2013-01-14 15:14:00,
2013-01-14 10:19:00,24.5,18.0,30.42,WNW,300,0.0,0.0,76,0.00,CLR,,0.00,WeatherDisplay:10.37,2013-01-14 15:19:00,
2013-01-14 10:24:00,24.5,18.0,30.42,WNW,300,0.3,2.3,76,0.00,CLR,,0.00,WeatherDisplay:10.37,2013-01-14 15:24:00,
2013-01-14 10:29:00,24.7,18.2,30.42,WNW,298,2.7,3.5,76,0.00,CLR,,0.00,WeatherDisplay:10.37,2013-01-14 15:29:00,
2013-01-14 10:34:00,24.7,18.2,30.42,NW,305,2.9,3.5,76,0.00,CLR,,0.00,WeatherDisplay:10.37,2013-01-14 15:34:00,
2013-01-14 10:39:00,24.7,17.9,30.42,WNW,298,2.8,4.6,75,0.00,CLR,,0.00,WeatherDisplay:10.37,2013-01-14 15:39:00,
2013-01-14 10:44:00,24.7,17.9,30.42,NW,313,3.6,4.6,75,0.00,CLR,,0.00,WeatherDisplay:10.37,2013-01-14 15:44:00,
2013-01-14 10:49:00,24.7,17.9,30.42,West,274,5.0,6.9,75,0.00,CLR,,0.00,WeatherDisplay:10.37,2013-01-14 15:49:00,
2013-01-14 10:54:00,24.7,17.6,30.42,WNW,282,2.0,6.0,74,0.00,CLR,,0.00,WeatherDisplay:10.37,2013-01-14 15:54:00,
2013-01-14 10:59:00,24.7,17.6,30.42,West,273,1.1,3.5,74,0.00,CLR,,0.00,WeatherDisplay:10.37,2013-01-14 15:59:00,
2013-01-14 11:04:00,24.7,17.3,30.42,West,273,0.7,3.5,73,0.00,CLR,,0.00,WeatherDisplay:10.37,2013-01-14 16:04:00,
2013-01-14 11:09:00,24.8,17.4,30.42,West,273,1.4,3.5,73,0.00,CLR,,0.00,WeatherDisplay:10.37,2013-01-14 16:09:00,
2013-01-14 11:14:00,24.8,17.4,30.42,West,273,0.0,1.0,73,0.00,CLR,,0.00,WeatherDisplay:10.37,2013-01-14 16:14:00,
2013-01-14 11:19:00,25.0,17.6,30.42,West,273,0.2,1.2,73,0.00,CLR,,0.00,WeatherDisplay:10.37,2013-01-14 16:19:00,
2013-01-14 11:24:00,25.0,17.2,30.41,West,273,1.6,3.5,72,0.00,CLR,,0.00,WeatherDisplay:10.37,2013-01-14 16:24:00,
2013-01-14 11:29:00,25.0,17.2,30.41,West,273,0.6,3.5,72,0.00,CLR,,0.00,WeatherDisplay:10.37,2013-01-14 16:29:00,
2013-01-14 11:34:00,25.0,17.2,30.41,West,273,0.0,0.0,72,0.00,CLR,,0.00,WeatherDisplay:10.37,2013-01-14 16:34:00,
2013-01-14 11:39:00,25.0,17.2,30.41,West,273,0.0,0.0,72,0.00,CLR,,0.00,WeatherDisplay:10.37,2013-01-14 16:39:00,
2013-01-14 11:44:00,25.1,17.3,30.41,West,273,0.0,0.0,72,0.00,CLR,,0.00,WeatherDisplay:10.37,2013-01-14 16:44:00,
2013-01-14 11:49:00,25.1,17.3,30.41,West,273,0.0,0.0,72,0.00,CLR,,0.00,WeatherDisplay:10.37,2013-01-14 16:49:00,
2013-01-14 11:54:00,25.1,17.3,30.39,West,273,0.0,0.0,72,0.00,CLR,,0.00,WeatherDisplay:10.37,2013-01-14 16:54:00,
2013-01-14 11:59:00,25.3,17.5,30.39,West,273,0.0,0.0,72,0.00,CLR,,0.00,WeatherDisplay:10.37,2013-01-14 16:59:00,
2013-01-14 12:04:00,25.3,17.5,30.39,West,273,0.0,0.0,72,0.00,CLR,,0.00,WeatherDisplay:10.37,2013-01-14 17:04:00,
2013-01-14 12:09:00,25.3,17.5,30.38,West,273,0.0,0.0,72,0.00,CLR,,0.00,WeatherDisplay:10.37,2013-01-14 17:09:00,
2013-01-14 12:14:00,25.4,17.6,30.38,West,273,1.3,2.3,72,0.00,CLR,,0.00,WeatherDisplay:10.37,2013-01-14 17:14:00,
2013-01-14 12:19:00,25.4,17.6,30.38,West,273,1.3,3.5,72,0.00,CLR,,0.00,WeatherDisplay:10.37,2013-01-14 17:19:00,
2013-01-14 12:24:00,25.4,17.6,30.38,West,273,0.0,0.0,72,0.00,CLR,,0.00,WeatherDisplay:10.37,2013-01-14 17:24:00,
2013-01-14 12:29:00,25.3,17.5,30.38,West,273,0.0,0.0,72,0.00,CLR,,0.00,WeatherDisplay:10.37,2013-01-14 17:29:00,
2013-01-14 12:34:00,25.4,17.6,30.38,West,273,1.3,3.5,72,0.00,CLR,,0.00,WeatherDisplay:10.37,2013-01-14 17:34:00,
2013-01-14 12:39:00,25.4,17.6,30.37,West,273,1.5,3.5,72,0.00,CLR,,0.00,WeatherDisplay:10.37,2013-01-14 17:39:00,
2013-01-14 12:44:00,25.4,17.3,30.37,West,273,0.8,3.5,71,0.00,CLR,,0.00,WeatherDisplay:10.37,2013-01-14 17:44:00,
2013-01-14 12:49:00,25.4,17.0,30.37,West,273,1.9,3.5,70,0.00,CLR,,0.00,WeatherDisplay:10.37,2013-01-14 17:49:00,
2013-01-14 12:54:00,25.4,17.0,30.38,West,273,2.2,3.5,70,0.00,CLR,,0.00,WeatherDisplay:10.37,2013-01-14 17:54:00,
2013-01-14 12:59:00,25.6,16.8,30.38,West,273,0.0,0.0,69,0.00,CLR,,0.00,WeatherDisplay:10.37,2013-01-14 17:59:00,
2013-01-14 13:04:00,25.6,16.8,30.38,West,273,0.0,0.0,69,0.00,CLR,,0.00,WeatherDisplay:10.37,2013-01-14 18:04:00,
2013-01-14 13:09:00,25.7,16.9,30.36,West,273,0.8,3.5,69,0.00,CLR,,0.00,WeatherDisplay:10.37,2013-01-14 18:09:00,
2013-01-14 13:14:00,25.8,16.7,30.36,West,273,0.0,0.0,68,0.00,CLR,,0.00,WeatherDisplay:10.37,2013-01-14 18:14:00,
2013-01-14 13:19:00,25.8,16.7,30.36,West,273,1.1,3.5,68,0.00,CLR,,0.00,WeatherDisplay:10.37,2013-01-14 18:19:00,
2013-01-14 13:24:00,25.8,16.7,30.38,West,273,1.4,3.5,68,0.00,CLR,,0.00,WeatherDisplay:10.37,2013-01-14 18:24:00,
2013-01-14 13:29:00,26.0,16.9,30.38,West,273,0.2,2.3,68,0.00,CLR,,0.00,WeatherDisplay:10.37,2013-01-14 18:29:00,
2013-01-14 13:34:00,26.1,17.0,30.38,West,273,0.0,0.0,68,0.00,CLR,,0.00,WeatherDisplay:10.37,2013-01-14 18:34:00,
2013-01-14 13:39:00,26.1,17.0,30.39,West,273,0.3,2.3,68,0.00,CLR,,0.00,WeatherDisplay:10.37,2013-01-14 18:39:00,
2013-01-14 13:44:00,26.1,16.6,30.39,West,273,0.0,0.0,67,0.00,CLR,,0.00,WeatherDisplay:10.37,2013-01-14 18:44:00,
2013-01-14 13:49:00,26.3,16.8,30.39,West,273,0.0,0.0,67,0.00,CLR,,0.00,WeatherDisplay:10.37,2013-01-14 18:49:00,
2013-01-14 13:54:00,26.4,16.9,30.40,West,273,0.1,1.2,67,0.00,CLR,,0.00,WeatherDisplay:10.37,2013-01-14 18:54:00,
2013-01-14 13:59:00,26.3,16.8,30.40,West,273,1.0,3.5,67,0.00,CLR,,0.00,WeatherDisplay:10.37,2013-01-14 18:59:00,
2013-01-14 14:04:00,26.3,16.8,30.40,West,273,0.0,0.0,67,0.00,CLR,,0.00,WeatherDisplay:10.37,2013-01-14 19:04:00,
2013-01-14 14:09:00,26.3,16.8,30.39,West,273,0.0,0.0,67,0.00,CLR,,0.00,WeatherDisplay:10.37,2013-01-14 19:09:00,
2013-01-14 14:14:00,26.3,16.8,30.39,West,273,0.6,2.3,67,0.00,CLR,,0.00,WeatherDisplay:10.37,2013-01-14 19:14:00,
2013-01-14 14:19:00,26.3,16.8,30.39,West,273,0.9,3.5,67,0.00,CLR,,0.00,WeatherDisplay:10.37,2013-01-14 19:19:00,
2013-01-14 14:24:00,26.3,16.8,30.39,West,273,3.3,4.6,67,0.00,CLR,,0.00,WeatherDisplay:10.37,2013-01-14 19:24:00,
2013-01-14 14:29:00,26.3,16.8,30.39,West,273,0.9,3.5,67,0.00,CLR,,0.00,WeatherDisplay:10.37,2013-01-14 19:29:00,
2013-01-14 14:34:00,26.3,16.5,30.39,WNW,300,3.0,5.8,66,0.00,CLR,,0.00,WeatherDisplay:10.37,2013-01-14 19:34:00,
2013-01-14 14:39:00,26.3,16.5,30.39,WNW,296,0.4,2.3,66,0.00,CLR,,0.00,WeatherDisplay:10.37,2013-01-14 19:39:00,
2013-01-14 14:44:00,26.4,16.6,30.39,WNW,296,0.0,0.0,66,0.00,CLR,,0.00,WeatherDisplay:10.37,2013-01-14 19:44:00,
2013-01-14 14:49:00,26.4,16.2,30.39,West,260,1.7,3.5,65,0.00,CLR,,0.00,WeatherDisplay:10.37,2013-01-14 19:49:00,
2013-01-14 14:54:00,26.4,15.9,30.41,West,261,2.0,4.6,64,0.00,CLR,,0.00,WeatherDisplay:10.37,2013-01-14 19:54:00,
2013-01-14 14:59:00,26.4,15.9,30.41,West,261,1.9,3.5,64,0.00,CLR,,0.00,WeatherDisplay:10.37,2013-01-14 19:59:00,
2013-01-14 15:04:00,26.4,15.9,30.41,West,261,0.0,0.0,64,0.00,CLR,,0.00,WeatherDisplay:10.37,2013-01-14 20:04:00,
2013-01-14 15:09:00,26.4,15.9,30.41,West,261,0.0,0.0,64,0.00,CLR,,0.00,WeatherDisplay:10.37,2013-01-14 20:09:00,
2013-01-14 15:14:00,26.4,15.9,30.41,West,261,0.0,0.0,64,0.00,CLR,,0.00,WeatherDisplay:10.37,2013-01-14 20:14:00,
2013-01-14 15:19:00,26.4,15.9,30.41,West,261,0.3,3.5,64,0.00,CLR,,0.00,WeatherDisplay:10.37,2013-01-14 20:19:00,
2013-01-14 15:24:00,26.4,15.9,30.41,West,261,0.0,0.0,64,0.00,CLR,,0.00,WeatherDisplay:10.37,2013-01-14 20:24:00,
2013-01-14 15:29:00,26.6,16.1,30.41,West,261,0.0,0.0,64,0.00,CLR,,0.00,WeatherDisplay:10.37,2013-01-14 20:29:00,
2013-01-14 15:34:00,26.6,16.1,30.41,West,261,0.0,0.0,64,0.00,CLR,,0.00,WeatherDisplay:10.37,2013-01-14 20:34:00,
2013-01-14 15:39:00,26.6,16.1,30.42,West,261,0.1,2.0,64,0.00,CLR,,0.00,WeatherDisplay:10.37,2013-01-14 20:39:00,
2013-01-14 15:44:00,26.6,16.1,30.42,West,261,0.3,2.3,64,0.00,CLR,,0.00,WeatherDisplay:10.37,2013-01-14 20:44:00,
2013-01-14 15:49:00,26.6,16.1,30.42,West,261,0.5,2.3,64,0.00,CLR,,0.00,WeatherDisplay:10.37,2013-01-14 20:49:00,
2013-01-14 15:54:00,26.6,16.1,30.43,West,261,1.1,3.5,64,0.00,CLR,,0.00,WeatherDisplay:10.37,2013-01-14 20:54:00,
2013-01-14 15:59:00,26.6,16.1,30.43,West,261,0.3,2.3,64,0.00,CLR,,0.00,WeatherDisplay:10.37,2013-01-14 20:59:00,
2013-01-14 16:04:00,26.6,16.1,30.43,West,261,2.0,3.5,64,0.00,CLR,,0.00,WeatherDisplay:10.37,2013-01-14 21:04:00,
2013-01-14 16:09:00,26.6,16.1,30.45,West,261,1.8,3.5,64,0.00,CLR,,0.00,WeatherDisplay:10.37,2013-01-14 21:09:00,
2013-01-14 16:14:00,26.6,16.1,30.45,West,261,0.0,0.0,64,0.00,CLR,,0.00,WeatherDisplay:10.37,2013-01-14 21:14:00,
2013-01-14 16:19:00,26.7,16.1,30.45,West,261,0.0,0.0,64,0.00,CLR,,0.00,WeatherDisplay:10.37,2013-01-14 21:19:00,
2013-01-14 16:24:00,26.6,16.1,30.44,West,261,2.2,4.6,64,0.00,CLR,,0.00,WeatherDisplay:10.37,2013-01-14 21:24:00,
2013-01-14 16:29:00,26.6,16.1,30.44,West,261,0.1,2.3,64,0.00,CLR,,0.00,WeatherDisplay:10.37,2013-01-14 21:29:00,
2013-01-14 16:34:00,26.6,16.1,30.44,West,261,0.0,0.0,64,0.00,CLR,,0.00,WeatherDisplay:10.37,2013-01-14 21:34:00,
2013-01-14 16:39:00,26.6,16.1,30.44,West,261,1.7,3.5,64,0.00,CLR,,0.00,WeatherDisplay:10.37,2013-01-14 21:39:00,
2013-01-14 16:44:00,26.6,16.1,30.44,West,261,0.0,1.2,64,0.00,CLR,,0.00,WeatherDisplay:10.37,2013-01-14 21:44:00,
2013-01-14 16:49:00,26.6,16.1,30.44,West,261,3.2,3.5,64,0.00,CLR,,0.00,WeatherDisplay:10.37,2013-01-14 21:49:00,
2013-01-14 16:54:00,26.6,16.1,30.46,West,261,1.9,3.5,64,0.00,CLR,,0.00,WeatherDisplay:10.37,2013-01-14 21:54:00,
2013-01-14 16:59:00,26.6,16.4,30.46,West,261,3.4,4.0,65,0.00,CLR,,0.00,WeatherDisplay:10.37,2013-01-14 21:59:00,
2013-01-14 17:04:00,26.6,16.8,30.46,West,261,2.1,3.5,66,0.00,CLR,,0.00,WeatherDisplay:10.37,2013-01-14 22:04:00,
2013-01-14 17:09:00,26.6,16.8,30.46,WSW,257,4.1,8.1,66,0.00,CLR,,0.00,WeatherDisplay:10.37,2013-01-14 22:09:00,
2013-01-14 17:14:00,26.4,16.9,30.46,WSW,253,0.4,3.5,67,0.00,CLR,,0.00,WeatherDisplay:10.37,2013-01-14 22:14:00,
2013-01-14 17:19:00,26.4,17.3,30.46,WSW,253,2.1,4.6,68,0.00,CLR,,0.00,WeatherDisplay:10.37,2013-01-14 22:19:00,
2013-01-14 17:24:00,26.3,17.2,30.46,WSW,253,2.1,3.5,68,0.00,CLR,,0.00,WeatherDisplay:10.37,2013-01-14 22:24:00,
2013-01-14 17:29:00,26.3,17.2,30.46,WSW,253,0.9,3.5,68,0.00,CLR,,0.00,WeatherDisplay:10.37,2013-01-14 22:29:00,
2013-01-14 17:34:00,26.1,17.0,30.46,WSW,253,3.3,4.6,68,0.00,CLR,,0.00,WeatherDisplay:10.37,2013-01-14 22:34:00,
2013-01-14 17:39:00,26.1,17.3,30.46,WSW,253,2.7,3.5,69,0.00,CLR,,0.00,WeatherDisplay:10.37,2013-01-14 22:39:00,
2013-01-14 17:44:00,26.1,17.3,30.46,WSW,253,0.0,1.0,69,0.00,CLR,,0.00,WeatherDisplay:10.37,2013-01-14 22:44:00,
2013-01-14 17:49:00,26.1,17.3,30.46,WSW,253,0.0,0.0,69,0.00,CLR,,0.00,WeatherDisplay:10.37,2013-01-14 22:49:00,
2013-01-14 17:54:00,26.0,17.2,30.45,WSW,253,0.3,2.3,69,0.00,CLR,,0.00,WeatherDisplay:10.37,2013-01-14 22:54:00,
2013-01-14 17:59:00,26.0,17.2,30.45,WSW,253,2.3,3.5,69,0.00,CLR,,0.00,WeatherDisplay:10.37,2013-01-14 22:59:00,
2013-01-14 18:04:00,26.0,17.2,30.45,WSW,253,0.6,2.3,69,0.00,CLR,,0.00,WeatherDisplay:10.37,2013-01-14 23:04:00,
2013-01-14 18:09:00,25.8,17.0,30.45,WSW,253,0.4,2.3,69,0.00,CLR,,0.00,WeatherDisplay:10.37,2013-01-14 23:09:00,
2013-01-14 18:14:00,25.8,17.0,30.45,WSW,253,1.3,3.5,69,0.00,CLR,,0.00,WeatherDisplay:10.37,2013-01-14 23:14:00,
2013-01-14 18:19:00,25.8,17.0,30.45,WSW,253,2.1,3.5,69,0.00,CLR,,0.00,WeatherDisplay:10.37,2013-01-14 23:19:00,
2013-01-14 18:24:00,25.7,16.9,30.44,WSW,253,0.0,0.0,69,0.00,CLR,,0.00,WeatherDisplay:10.37,2013-01-14 23:24:00,
2013-01-14 18:29:00,25.7,16.9,30.44,WSW,253,0.0,0.0,69,0.00,CLR,,0.00,WeatherDisplay:10.37,2013-01-14 23:29:00,
2013-01-14 18:34:00,25.6,16.8,30.44,WSW,253,0.6,3.5,69,0.00,CLR,,0.00,WeatherDisplay:10.37,2013-01-14 23:34:00,
2013-01-14 18:39:00,25.6,17.2,30.44,WSW,253,0.0,0.0,70,0.00,CLR,,0.00,WeatherDisplay:10.37,2013-01-14 23:39:00,
2013-01-14 18:44:00,25.4,17.0,30.44,WSW,253,0.0,0.0,70,0.00,CLR,,0.00,WeatherDisplay:10.37,2013-01-14 23:44:00,
2013-01-14 18:49:00,25.4,17.0,30.44,WSW,253,1.5,3.5,70,0.00,CLR,,0.00,WeatherDisplay:10.37,2013-01-14 23:49:00,
2013-01-14 18:54:00,25.4,17.0,30.43,WSW,253,2.5,3.5,70,0.00,CLR,,0.00,WeatherDisplay:10.37,2013-01-14 23:54:00,
2013-01-14 18:59:00,25.4,17.0,30.43,WSW,253,2.0,3.5,70,0.00,CLR,,0.00,WeatherDisplay:10.37,2013-01-14 23:59:00,
2013-01-14 19:04:00,25.4,17.3,30.43,WSW,253,2.4,4.0,71,0.00,CLR,,0.00,WeatherDisplay:10.37,2013-01-15 00:04:00,
2013-01-14 19:09:00,25.4,17.3,30.43,WSW,253,2.2,3.5,71,0.00,CLR,,0.00,WeatherDisplay:10.37,2013-01-15 00:09:00,
2013-01-14 19:14:00,25.3,17.2,30.43,WSW,253,0.0,0.0,71,0.00,CLR,,0.00,WeatherDisplay:10.37,2013-01-15 00:14:00,
2013-01-14 19:19:00,25.3,17.2,30.43,WSW,253,2.0,3.5,71,0.00,CLR,,0.00,WeatherDisplay:10.37,2013-01-15 00:19:00,
2013-01-14 19:24:00,25.3,17.2,30.43,WSW,253,0.0,0.0,71,0.00,CLR,,0.00,WeatherDisplay:10.37,2013-01-15 00:24:00,
2013-01-14 19:29:00,25.4,17.3,30.43,WSW,253,0.0,0.0,71,0.00,CLR,,0.00,WeatherDisplay:10.37,2013-01-15 00:29:00,
2013-01-14 19:34:00,25.4,17.6,30.43,WSW,253,0.0,1.2,72,0.00,CLR,,0.00,WeatherDisplay:10.37,2013-01-15 00:34:00,
2013-01-14 19:39:00,25.4,17.6,30.43,WSW,253,1.7,3.5,72,0.00,CLR,,0.00,WeatherDisplay:10.37,2013-01-15 00:39:00,
2013-01-14 19:44:00,25.4,17.3,30.43,WSW,253,0.1,1.2,71,0.00,CLR,,0.00,WeatherDisplay:10.37,2013-01-15 00:44:00,
2013-01-14 19:49:00,25.4,17.3,30.43,WSW,253,0.1,1.2,71,0.00,CLR,,0.00,WeatherDisplay:10.37,2013-01-15 00:49:00,
2013-01-14 19:54:00,25.4,17.6,30.42,WSW,253,1.9,3.5,72,0.00,CLR,,0.00,WeatherDisplay:10.37,2013-01-15 00:54:00,
2013-01-14 19:59:00,25.4,17.6,30.42,WSW,253,0.0,0.0,72,0.00,CLR,,0.00,WeatherDisplay:10.37,2013-01-15 00:59:00,
2013-01-14 20:04:00,25.4,17.3,30.42,WSW,253,0.0,0.0,71,0.00,CLR,,0.00,WeatherDisplay:10.37,2013-01-15 01:04:00,
2013-01-14 20:09:00,25.4,17.6,30.42,WSW,253,1.1,2.3,72,0.00,CLR,,0.00,WeatherDisplay:10.37,2013-01-15 01:09:00,
2013-01-14 20:14:00,25.4,17.6,30.42,WSW,253,0.0,0.0,72,0.00,CLR,,0.00,WeatherDisplay:10.37,2013-01-15 01:14:00,
2013-01-14 20:19:00,25.4,17.6,30.42,WSW,253,0.0,0.0,72,0.00,CLR,,0.00,WeatherDisplay:10.37,2013-01-15 01:19:00,
2013-01-14 20:24:00,25.4,17.6,30.42,WSW,253,0.0,0.0,72,0.00,CLR,,0.00,WeatherDisplay:10.37,2013-01-15 01:24:00,
2013-01-14 20:29:00,25.6,17.8,30.42,WSW,253,0.0,0.0,72,0.00,CLR,,0.00,WeatherDisplay:10.37,2013-01-15 01:29:00,
2013-01-14 20:34:00,25.6,17.8,30.41,WSW,253,0.0,0.0,72,0.00,CLR,,0.00,WeatherDisplay:10.37,2013-01-15 01:34:00,
2013-01-14 20:39:00,25.6,17.8,30.41,WSW,253,0.0,0.0,72,0.00,CLR,,0.00,WeatherDisplay:10.37,2013-01-15 01:39:00,
2013-01-14 20:44:00,25.6,17.8,30.41,WSW,253,1.0,2.3,72,0.00,CLR,,0.00,WeatherDisplay:10.37,2013-01-15 01:44:00,
2013-01-14 20:49:00,25.6,17.8,30.41,WSW,253,2.7,4.6,72,0.00,CLR,,0.00,WeatherDisplay:10.37,2013-01-15 01:49:00,
2013-01-14 20:54:00,25.6,17.8,30.42,WSW,253,0.1,1.2,72,0.00,CLR,,0.00,WeatherDisplay:10.37,2013-01-15 01:54:00,
2013-01-14 20:59:00,25.6,17.8,30.42,WSW,253,0.0,0.0,72,0.00,CLR,,0.00,WeatherDisplay:10.37,2013-01-15 01:59:00,
2013-01-14 21:04:00,25.6,17.8,30.42,WSW,253,0.0,0.0,72,0.00,CLR,,0.00,WeatherDisplay:10.37,2013-01-15 02:04:00,
2013-01-14 21:09:00,25.6,17.8,30.42,WSW,253,0.0,0.0,72,0.00,CLR,,0.00,WeatherDisplay:10.37,2013-01-15 02:09:00,
2013-01-14 21:14:00,25.6,17.8,30.42,WSW,253,0.0,0.0,72,0.00,CLR,,0.00,WeatherDisplay:10.37,2013-01-15 02:14:00,
2013-01-14 21:19:00,25.4,17.6,30.42,WSW,253,0.0,0.0,72,0.00,CLR,,0.00,WeatherDisplay:10.37,2013-01-15 02:19:00,
2013-01-14 21:24:00,25.4,17.6,30.42,WSW,253,0.0,0.0,72,0.00,CLR,,0.00,WeatherDisplay:10.37,2013-01-15 02:24:00,
2013-01-14 21:29:00,25.4,17.6,30.42,WSW,253,0.0,0.0,72,0.00,CLR,,0.00,WeatherDisplay:10.37,2013-01-15 02:29:00,
2013-01-14 21:34:00,25.3,17.5,30.42,WSW,253,0.1,1.2,72,0.00,CLR,,0.00,WeatherDisplay:10.37,2013-01-15 02:34:00,
2013-01-14 21:39:00,25.3,17.5,30.43,WSW,253,0.0,0.0,72,0.00,CLR,,0.00,WeatherDisplay:10.37,2013-01-15 02:39:00,
2013-01-14 21:44:00,25.3,17.5,30.43,WSW,253,0.5,2.3,72,0.00,CLR,,0.00,WeatherDisplay:10.37,2013-01-15 02:44:00,
2013-01-14 21:49:00,25.3,17.5,30.43,WSW,253,0.0,0.0,72,0.00,CLR,,0.00,WeatherDisplay:10.37,2013-01-15 02:49:00,
2013-01-14 21:54:00,25.3,17.5,30.42,WSW,253,0.0,1.2,72,0.00,CLR,,0.00,WeatherDisplay:10.37,2013-01-15 02:54:00,
2013-01-14 21:59:00,25.3,17.5,30.42,WSW,253,0.0,0.0,72,0.00,CLR,,0.00,WeatherDisplay:10.37,2013-01-15 02:59:00,
2013-01-14 22:04:00,25.3,17.5,30.41,WSW,253,0.0,0.0,72,0.00,CLR,,0.00,WeatherDisplay:10.37,2013-01-15 03:04:00,
2013-01-14 22:09:00,25.1,17.3,30.41,WSW,253,0.0,0.0,72,0.00,CLR,,0.00,WeatherDisplay:10.37,2013-01-15 03:09:00,
2013-01-14 22:14:00,25.1,17.3,30.41,WSW,253,0.1,1.2,72,0.00,CLR,,0.00,WeatherDisplay:10.37,2013-01-15 03:14:00,
2013-01-14 22:19:00,25.1,17.3,30.41,WSW,253,0.0,1.2,72,0.00,CLR,,0.00,WeatherDisplay:10.37,2013-01-15 03:19:00,
2013-01-14 22:24:00,25.1,17.3,30.40,WSW,253,0.0,0.0,72,0.00,CLR,,0.00,WeatherDisplay:10.37,2013-01-15 03:24:00,
2013-01-14 22:29:00,25.1,17.3,30.40,WSW,253,0.0,0.0,72,0.00,CLR,,0.00,WeatherDisplay:10.37,2013-01-15 03:29:00,
2013-01-14 22:34:00,25.0,17.2,30.40,WSW,253,0.0,0.0,72,0.00,CLR,,0.00,WeatherDisplay:10.37,2013-01-15 03:34:00,
2013-01-14 22:39:00,25.0,17.2,30.40,WSW,253,0.0,0.0,72,0.00,CLR,,0.00,WeatherDisplay:10.37,2013-01-15 03:39:00,
2013-01-14 22:44:00,24.8,17.1,30.40,WSW,253,0.0,0.0,72,0.00,CLR,,0.00,WeatherDisplay:10.37,2013-01-15 03:44:00,
2013-01-14 22:49:00,24.7,17.0,30.40,WSW,253,0.0,0.0,72,0.00,CLR,,0.00,WeatherDisplay:10.37,2013-01-15 03:49:00,
2013-01-14 22:54:00,24.7,17.0,30.41,WSW,253,0.0,0.0,72,0.00,CLR,,0.00,WeatherDisplay:10.37,2013-01-15 03:54:00,
2013-01-14 22:59:00,24.5,16.8,30.41,WSW,253,0.0,0.0,72,0.00,CLR,,0.00,WeatherDisplay:10.37,2013-01-15 03:59:00,
2013-01-14 23:04:00,24.4,17.0,30.41,WSW,253,0.0,0.0,73,0.00,CLR,,0.00,WeatherDisplay:10.37,2013-01-15 04:04:00,
2013-01-14 23:09:00,24.4,17.0,30.41,WSW,253,0.0,0.0,73,0.00,CLR,,0.00,WeatherDisplay:10.37,2013-01-15 04:09:00,
2013-01-14 23:14:00,24.2,16.8,30.41,WSW,253,0.0,0.0,73,0.00,CLR,,0.00,WeatherDisplay:10.37,2013-01-15 04:14:00,
2013-01-14 23:19:00,24.1,16.7,30.41,WSW,253,0.0,0.0,73,0.00,CLR,,0.00,WeatherDisplay:10.37,2013-01-15 04:19:00,
2013-01-14 23:24:00,24.1,16.4,30.41,WSW,253,0.0,0.0,72,0.00,CLR,,0.00,WeatherDisplay:10.37,2013-01-15 04:24:00,
2013-01-14 23:29:00,23.9,16.2,30.41,WSW,253,0.0,0.0,72,0.00,CLR,,0.00,WeatherDisplay:10.37,2013-01-15 04:29:00,
2013-01-14 23:34:00,23.8,16.1,30.41,WSW,253,0.0,0.0,72,0.00,CLR,,0.00,WeatherDisplay:10.37,2013-01-15 04:34:00,
2013-01-14 23:39:00,23.6,15.9,30.41,WSW,253,0.0,0.0,72,0.00,CLR,,0.00,WeatherDisplay:10.37,2013-01-15 04:39:00,
2013-01-14 23:44:00,23.5,15.8,30.41,WSW,253,0.0,0.0,72,0.00,CLR,,0.00,WeatherDisplay:10.37,2013-01-15 04:44:00,
2013-01-14 23:49:00,23.2,15.5,30.41,WSW,253,0.0,0.0,72,0.00,CLR,,0.00,WeatherDisplay:10.37,2013-01-15 04:49:00,
2013-01-14 23:54:00,23.0,15.3,30.41,WSW,253,0.0,0.0,72,0.00,CLR,,0.00,WeatherDisplay:10.37,2013-01-15 04:54:00,
2013-01-14 23:59:00,22.9,15.2,30.41,WSW,253,0.0,0.0,72,0.00,CLR,,0.00,WeatherDisplay:10.37,2013-01-15 04:59:00,